[[{"header":{"parameterUnit":"m.s-1","parameterCategory":1,"la1":30.2991,"la2":30.254,"lo1":-89.0895,"lo2":-89.0444,"dy":0.0017,"dx":0.0017,"nx":28,"ny":28,"refTime":"2024-02-08T09:00:00:Z","depth":0,"parameterNumber":2,"parameterNumberName":"U-component_of_WINDS"},"data":[0,0,0,0,0,0,0,0,0,0,0,0,0,0,0,0,0,0,0,0,0,0,0,0,0,0,0,0,0,0,0,0,0,0,0,0,0,0,0,0,0,0,0,0,0,0,0,0,0,0,0,0,0,0,0,0,0,0,-2.7134,-2.7135,0,-2.724,-2.7241,-2.7242,-2.7276,-2.7276,-2.7275,-2.7275,-2.7385,-2.7388,-2.7391,0,0,0,0,0,0,0,0,0,0,0,0,0,-2.6964,-2.6967,-2.7134,-2.7136,-2.7137,-2.7239,-2.7241,-2.7242,-2.7276,-2.7276,-2.7275,-2.7275,-2.7384,-2.7388,-2.7392,0,0,0,0,0,0,0,0,0,0,0,0,0,-2.705,-2.6968,-2.7134,-2.7166,-2.717,-2.7239,-2.7241,-2.7243,-2.7276,-2.7276,-2.7275,-2.7274,-2.7382,-2.7387,-2.7392,-2.7438,0,0,-2.7408,-2.741,0,0,0,0,0,0,0,0,-2.7045,-2.7057,-2.716,-2.7164,-2.7169,-2.7244,-2.7221,-2.7308,-2.7277,-2.7236,-2.7275,-2.7274,-2.7339,-2.7347,-2.7369,-2.7443,-2.7447,-2.7408,-2.7411,-2.7413,-2.7415,0,0,0,0,0,0,0,-2.7039,-2.7052,-2.7176,-2.7162,-2.7167,-2.7176,-2.7187,-2.7238,-2.729,-2.724,-2.7242,-2.7254,-2.7341,-2.7364,-2.7371,-2.7449,-2.7408,-2.7412,-2.7415,-2.7417,-2.7565,-2.7566,0,0,0,0,0,0,-2.7028,-2.7047,-2.7173,-2.7179,-2.7104,-2.7179,-2.7192,-2.7221,-2.729,-2.7299,-2.7255,-2.7255,-2.7355,-2.7365,-2.7375,-2.7432,-2.7413,-2.7418,-2.7421,-2.7564,-2.7565,-2.7566,0,0,0,0,0,0,-2.7024,-2.7039,-2.7168,-2.7114,-2.7131,-2.7183,-2.7215,-2.7223,-2.7246,-2.7301,-2.7311,-2.7268,-2.7355,-2.7368,-2.7421,-2.7436,-2.742,-2.7425,-2.7563,-2.7564,-2.7566,-2.7547,0,0,0,0,0,0,-2.7019,-2.7037,-2.7055,-2.7114,-2.7134,-2.7212,-2.7216,-2.7226,-2.7254,-2.7256,-2.7316,-2.7326,-2.7356,-2.7414,-2.7426,-2.7443,-2.7429,-2.7562,-2.7564,-2.7565,-2.7546,-2.7547,-2.7548,0,0,0,0,0,-2.7013,-2.7046,-2.7055,-2.707,-2.7157,-2.7213,-2.7224,-2.7258,-2.7255,-2.7273,-2.7309,-2.7324,-2.7433,-2.7419,-2.7434,-2.7452,-2.7561,-2.7563,-2.7565,-2.7546,-2.7547,-2.7548,0,0,0,0,0,0,-2.6988,-2.7054,-2.7065,-2.7119,-2.716,-2.7219,-2.7242,-2.7258,-2.7301,-2.7301,-2.7341,-2.7355,-2.7405,-2.7434,-2.7417,-2.7499,-2.7498,-2.7503,-2.7478,-2.748,-2.748,-2.7472,-2.7433,0,0,0,0,0,-2.6988,-2.7028,-2.7084,-2.7125,-2.7145,-2.719,-2.7216,-2.7238,-2.7283,-2.73,-2.734,-2.7383,-2.7427,-2.7455,-2.7499,-2.7551,-2.7564,-2.7571,-2.7572,-2.7572,-2.7576,-2.7604,-2.7608,-2.7573,-2.7573,-2.7573,0,0,-2.699,-2.7031,-2.7054,-2.7121,-2.7156,-2.7196,-2.7205,-2.7247,-2.7278,-2.7307,-2.7359,-2.739,-2.7441,-2.7493,-2.7518,-2.7519,-2.7588,-2.7575,-2.7575,-2.7578,-2.7607,-2.761,-2.7613,-2.7574,-2.7574,-2.7573,0,0,-2.7013,-2.7049,-2.7086,-2.712,-2.7172,-2.7202,-2.7211,-2.7267,-2.7288,-2.7341,-2.7364,-2.7401,-2.7476,-2.7511,-2.7538,-2.7574,-2.7589,-2.7587,-2.7592,-2.762,-2.7622,-2.7625,-2.7637,-2.7641,-2.7591,-2.7591,-2.7591,0,-2.7009,-2.707,-2.7104,-2.7145,-2.7174,-2.7201,-2.724,-2.7272,-2.7335,-2.7355,-2.7355,-2.7449,-2.7485,-2.7546,-2.7554,-2.7576,-2.7587,-2.758,-2.7619,-2.7622,-2.7625,-2.7637,-2.7641,-2.759,-2.759,-2.7591,-2.7591,0,-2.7061,-2.7103,-2.7128,-2.7187,-2.7219,-2.7258,-2.7299,-2.7327,-2.7346,-2.7376,-2.7429,-2.7473,-2.7526,-2.7542,-2.7562,-2.7605,-2.7604,-2.7611,-2.761,-2.7627,-2.7639,-2.7644,-2.7589,-2.759,-2.759,-2.759,0,0,-2.7071,-2.7149,-2.7157,-2.7184,-2.7243,-2.7276,-2.7317,-2.7367,-2.739,-2.7433,-2.7468,-2.7531,-2.7537,-2.7569,-2.7593,-2.7617,-2.7641,-2.7621,-2.7623,-2.7622,-2.7691,-2.7685,-2.7689,-2.7652,-2.7653,-2.7654,-2.7687,0,-2.7101,-2.7174,-2.7206,-2.7265,-2.7303,-2.733,-2.7366,-2.7406,-2.7434,-2.7472,-2.7504,-2.7548,-2.7553,-2.7572,-2.7598,-2.7633,-2.7655,-2.7631,-2.7685,-2.7686,-2.767,-2.7696,-2.7689,-2.7718,-2.7691,-2.7692,-2.7693,0,-2.7146,-2.7188,-2.725,-2.7303,-2.732,-2.7352,-2.74,-2.7436,-2.7482,-2.7501,-2.7535,-2.7558,-2.7602,-2.7599,-2.766,-2.7643,-2.7667,-2.7687,-2.7689,-2.7695,-2.769,-2.7701,-2.7728,-2.7732,-2.7701,-2.77,-2.7699,0,-2.7146,-2.7218,-2.7264,-2.7286,-2.735,-2.7371,-2.7398,-2.7444,-2.7472,-2.7515,-2.7533,-2.7581,-2.7607,-2.7644,-2.7678,-2.7673,-2.7736,-2.7736,-2.7753,-2.7752,-2.7765,-2.7763,-2.7795,-2.7782,-2.7781,-2.7781,-2.7781,0,-2.7175,-2.7212,-2.7264,-2.7292,-2.7334,-2.7371,-2.7411,-2.7441,-2.7481,-2.7516,-2.7543,-2.7575,-2.7619,-2.7657,-2.7685,-2.7731,-2.7743,-2.776,-2.7767,-2.7757,-2.7755,-2.7773,-2.7771,-2.7783,-2.7782,-2.7782,-2.7782,0,-2.7181,-2.7218,-2.727,-2.7325,-2.734,-2.7368,-2.7416,-2.7445,-2.7475,-2.7518,-2.7531,-2.7578,-2.7624,-2.7663,-2.7724,-2.7743,-2.779,-2.7799,-2.7774,-2.7777,-2.7792,-2.779,-2.7835,-2.7843,-2.7825,-2.7825,-2.7825,0,-2.7197,-2.7226,-2.7284,-2.7309,-2.7335,-2.7375,-2.7403,-2.7441,-2.7469,-2.7523,-2.7546,-2.7593,-2.7633,-2.7706,-2.7746,-2.7793,-2.7802,-2.7815,-2.7809,-2.7798,-2.7801,-2.7799,-2.7801,-2.7815,-2.7815,-2.7815,-2.7815,0,-2.7221,-2.7237,-2.7277,-2.7322,-2.7355,-2.7393,-2.7432,-2.7451,-2.7496,-2.7526,-2.7573,-2.7604,-2.7666,-2.7713,-2.7764,-2.7793,-2.7811,-2.7816,-2.7823,-2.7813,-2.7797,-2.7805,-2.7774,-2.7815,-2.7815,-2.7815,-2.7815,-2.7815,-2.7232,-2.7258,-2.7303,-2.7346,-2.7379,-2.7414,-2.7443,-2.7476,-2.7516,-2.7568,-2.7588,-2.7635,-2.7681,-2.7751,-2.778,-2.7818,-2.7821,-2.783,-2.7832,-2.7834,-2.7832,-2.7791,-2.7828,-2.7828,-2.7828,-2.7828,-2.7828,0,-2.7256,-2.7286,-2.7325,-2.7378,-2.7411,-2.7425,-2.7469,-2.7496,-2.7537,-2.7578,-2.7616,-2.767,-2.7715,-2.7759,-2.7807,-2.7829,-2.7839,-2.784,-2.7839,-2.7845,-2.7828,-2.7817,-2.7832,-2.7832,-2.7832,-2.7832,-2.7832,-2.7832,-2.7273,-2.7317,-2.7339,-2.74,-2.743,-2.7476,-2.75,-2.7533,-2.7565,-2.7623,-2.766,-2.7688,-2.773,-2.7781,-2.7824,-2.7835,-2.7852,-2.7851,-2.7865,-2.7847,-2.7846,-2.7846,-2.7836,-2.7854,-2.7854,-2.7879,-2.7879,-2.7879]},{"header":{"parameterUnit":"m.s-1","parameterCategory":1,"la1":30.2991,"la2":30.254,"lo1":-89.0895,"lo2":-89.0444,"dy":0.0017,"dx":0.0017,"nx":28,"ny":28,"refTime":"2024-02-08T09:00:00:Z","depth":0,"parameterNumber":3,"parameterNumberName":"V-component_of_WINDS"},"data":[0,0,0,0,0,0,0,0,0,0,0,0,0,0,0,0,0,0,0,0,0,0,0,0,0,0,0,0,0,0,0,0,0,0,0,0,0,0,0,0,0,0,0,0,0,0,0,0,0,0,0,0,0,0,0,0,0,0,2.4811,2.4812,0,2.4967,2.4969,2.4971,2.5032,2.5031,2.5031,2.503,2.5193,2.5197,2.5202,0,0,0,0,0,0,0,0,0,0,0,0,0,2.4567,2.4571,2.481,2.4812,2.4814,2.4967,2.4969,2.4971,2.5032,2.5031,2.5031,2.503,2.5191,2.5197,2.5202,0,0,0,0,0,0,0,0,0,0,0,0,0,2.4693,2.4572,2.481,2.4863,2.4869,2.4967,2.4969,2.4972,2.5032,2.5031,2.503,2.503,2.5189,2.5196,2.5203,2.5261,0,0,2.5225,2.5228,0,0,0,0,0,0,0,0,2.4686,2.4702,2.4853,2.4859,2.4866,2.4979,2.4943,2.5069,2.5032,2.497,2.503,2.5029,2.5122,2.5135,2.5166,2.5268,2.5275,2.5226,2.523,2.5233,2.5235,0,0,0,0,0,0,0,2.4677,2.4696,2.4873,2.4855,2.4863,2.488,2.4897,2.4967,2.5048,2.4975,2.498,2.4998,2.5126,2.5159,2.517,2.5278,2.5225,2.5232,2.5236,2.5239,2.5439,2.544,0,0,0,0,0,0,2.4659,2.4688,2.4868,2.4877,2.4773,2.4885,2.4904,2.4944,2.5047,2.5063,2.4998,2.5,2.5147,2.5162,2.5176,2.5253,2.5233,2.524,2.5244,2.5438,2.5439,2.544,0,0,0,0,0,0,2.4654,2.4675,2.4861,2.4784,2.4809,2.489,2.4934,2.4947,2.498,2.5065,2.508,2.5017,2.5147,2.5166,2.524,2.5259,2.5243,2.5249,2.5436,2.5438,2.5439,2.5404,0,0,0,0,0,0,2.4646,2.4672,2.4694,2.4784,2.4813,2.4921,2.4935,2.4951,2.4992,2.4996,2.5086,2.51,2.5148,2.5229,2.5247,2.5268,2.5255,2.5435,2.5437,2.5439,2.5404,2.5404,2.5404,0,0,0,0,0,2.4637,2.4677,2.4694,2.4716,2.4841,2.4922,2.4939,2.4992,2.4993,2.5017,2.5071,2.5098,2.5254,2.5236,2.5257,2.5281,2.5434,2.5436,2.5439,2.5404,2.5404,2.5404,0,0,0,0,0,0,2.4587,2.469,2.471,2.478,2.4842,2.4932,2.4963,2.499,2.5053,2.5054,2.5119,2.5139,2.5208,2.5252,2.523,2.5343,2.5346,2.5352,2.5312,2.5313,2.5313,2.5302,2.5261,0,0,0,0,0,2.4584,2.464,2.4727,2.4781,2.4811,2.4881,2.4918,2.4954,2.5021,2.5048,2.5108,2.5172,2.5236,2.5277,2.534,2.541,2.5432,2.5437,2.5437,2.5437,2.5443,2.5486,2.549,2.5448,2.5448,2.5447,0,0,2.4578,2.4642,2.4673,2.4772,2.4824,2.4882,2.4903,2.4962,2.5007,2.5057,2.5131,2.5177,2.5254,2.5326,2.5362,2.5365,2.5459,2.544,2.5439,2.5445,2.5489,2.5493,2.5496,2.5449,2.5449,2.5449,0,0,2.4598,2.4651,2.4702,2.4754,2.4833,2.488,2.4892,2.4979,2.5012,2.5087,2.5127,2.5181,2.5289,2.5343,2.5384,2.5427,2.5455,2.5446,2.5448,2.5489,2.5493,2.5496,2.5514,2.5519,2.5451,2.5451,2.5451,0,2.4582,2.467,2.4725,2.4784,2.4827,2.4876,2.493,2.4978,2.5073,2.5103,2.5105,2.5244,2.5299,2.5386,2.5397,2.5428,2.5446,2.5436,2.5487,2.5491,2.5495,2.5513,2.5519,2.5449,2.5449,2.545,2.545,0,2.4647,2.4707,2.4739,2.4831,2.4878,2.4934,2.5,2.5041,2.5073,2.5121,2.5198,2.5266,2.5345,2.5368,2.54,2.5461,2.5461,2.5475,2.5479,2.5497,2.5515,2.5522,2.5447,2.5448,2.5448,2.5449,0,0,2.4638,2.4761,2.4772,2.4815,2.4907,2.4956,2.5015,2.5092,2.5127,2.5192,2.5245,2.5336,2.535,2.5397,2.5436,2.5472,2.5505,2.5482,2.5485,2.5486,2.558,2.557,2.5577,2.5524,2.5525,2.5526,2.5574,0,2.4671,2.4778,2.4831,2.4916,2.4974,2.5022,2.5074,2.5137,2.5183,2.5241,2.5292,2.5357,2.5369,2.5399,2.5436,2.5493,2.5525,2.549,2.5575,2.5578,2.5556,2.5586,2.5575,2.5617,2.5581,2.5582,2.5583,0,2.4724,2.4789,2.4879,2.4967,2.4993,2.5039,2.5116,2.5169,2.5242,2.5274,2.5328,2.5366,2.5432,2.5431,2.5525,2.55,2.5538,2.5571,2.5574,2.5585,2.5582,2.56,2.5632,2.5638,2.5594,2.5593,2.5593,0,2.4711,2.4821,2.4891,2.4926,2.5029,2.506,2.5105,2.5177,2.5221,2.5289,2.5319,2.5393,2.5434,2.5491,2.5549,2.5542,2.5638,2.5641,2.5668,2.5667,2.5687,2.5685,2.5727,2.5708,2.5708,2.5708,2.5708,0,2.4744,2.4798,2.4887,2.4929,2.4992,2.5053,2.5115,2.5163,2.5227,2.5282,2.5328,2.5378,2.5451,2.5511,2.5557,2.5629,2.5647,2.5676,2.5688,2.5673,2.5669,2.5699,2.5699,2.571,2.5709,2.5709,2.5709,0,2.474,2.4801,2.488,2.4972,2.4996,2.5039,2.5118,2.5163,2.5212,2.528,2.53,2.5378,2.5451,2.5515,2.5612,2.5643,2.5718,2.5731,2.5693,2.57,2.5724,2.5721,2.5788,2.5801,2.5772,2.5772,2.5772,0,2.4757,2.48,2.4897,2.4936,2.498,2.5043,2.5089,2.5151,2.5197,2.5286,2.532,2.5397,2.5461,2.5577,2.5643,2.5718,2.5735,2.5753,2.5747,2.5731,2.5738,2.5735,2.5741,2.5754,2.5754,2.5754,2.5754,0,2.4782,2.4811,2.4874,2.4949,2.5002,2.5064,2.5128,2.5158,2.5233,2.5283,2.5359,2.5409,2.5509,2.5585,2.5668,2.5716,2.5749,2.5755,2.5766,2.5752,2.5729,2.5744,2.5695,2.5754,2.5754,2.5754,2.5754,2.5754,2.4791,2.4832,2.4907,2.4977,2.5032,2.5091,2.5138,2.5194,2.5258,2.5344,2.5377,2.5455,2.5531,2.5645,2.5693,2.5756,2.5762,2.5776,2.578,2.5783,2.5782,2.5717,2.5771,2.5772,2.5772,2.5772,2.5772,0,2.4819,2.4871,2.4934,2.5022,2.5078,2.5103,2.5176,2.5221,2.5289,2.5356,2.542,2.5508,2.5584,2.5656,2.5736,2.5773,2.579,2.5792,2.579,2.5802,2.5772,2.5756,2.5777,2.5777,2.5777,2.5777,2.5777,2.5777,2.4841,2.4913,2.4951,2.5052,2.5104,2.518,2.522,2.5276,2.533,2.5427,2.5489,2.5536,2.5607,2.5692,2.5763,2.5783,2.5811,2.5809,2.5833,2.5804,2.5803,2.5802,2.5787,2.5814,2.5815,2.5858,2.5859,2.5859]}]]